Time,TemperatureF,DewpointF,PressureIn,WindDirection,WindDirectionDegrees,WindSpeedMPH,WindSpeedGustMPH,Humidity,HourlyPrecipIn,Conditions,Clouds,dailyrainin,SolarRadiationWatts/m^2,SoftwareType,DateUTC
2013-10-31 00:21:00,54.0,37.0,30.14,East,93,1.0,4.0,53,-99.99,,,-99.99,0.000000,,2013-10-31 07:21:00,
2013-10-31 00:32:00,54.0,37.0,30.14,East,93,1.0,4.0,53,-99.99,,,-99.99,0.000000,,2013-10-31 07:32:00,
2013-10-31 00:40:00,54.0,38.0,30.13,SSW,193,4.0,5.0,54,-99.99,,,-99.99,0.000000,,2013-10-31 07:40:00,
2013-10-31 01:22:00,54.0,38.0,30.13,SSW,193,4.0,5.0,54,-99.99,,,-99.99,0.000000,,2013-10-31 08:22:00,
2013-10-31 01:32:00,54.0,38.0,30.13,SSW,193,4.0,5.0,54,-99.99,,,-99.99,0.000000,,2013-10-31 08:32:00,
2013-10-31 02:40:00,52.0,37.0,30.14,East,89,3.0,5.0,57,-99.99,,,-99.99,0.000000,,2013-10-31 09:40:00,
2013-10-31 03:23:00,52.0,37.0,30.14,East,89,3.0,5.0,57,-99.99,,,-99.99,0.000000,,2013-10-31 10:23:00,
2013-10-31 03:33:00,52.0,37.0,30.14,East,89,3.0,5.0,57,-99.99,,,-99.99,0.000000,,2013-10-31 10:33:00,
2013-10-31 03:40:00,53.0,38.0,30.13,ENE,70,0.0,1.0,56,-99.99,,,-99.99,0.000000,,2013-10-31 10:40:00,
2013-10-31 04:21:00,53.0,38.0,30.13,ENE,70,0.0,1.0,56,-99.99,,,-99.99,0.000000,,2013-10-31 11:21:00,
2013-10-31 04:33:00,53.0,38.0,30.13,ENE,70,0.0,1.0,56,-99.99,,,-99.99,0.000000,,2013-10-31 11:33:00,
2013-10-31 04:40:00,54.0,35.0,30.13,NNE,17,3.0,4.0,49,-99.99,,,-99.99,0.000000,,2013-10-31 11:40:00,
2013-10-31 05:21:00,54.0,35.0,30.13,NNE,17,3.0,4.0,49,-99.99,,,-99.99,0.000000,,2013-10-31 12:21:00,
2013-10-31 05:32:00,54.0,35.0,30.13,NNE,17,3.0,4.0,49,-99.99,,,-99.99,0.000000,,2013-10-31 12:32:00,
2013-10-31 05:40:00,53.0,36.0,30.14,SSW,195,2.0,4.0,52,-99.99,,,-99.99,0.000000,,2013-10-31 12:40:00,
2013-10-31 06:22:00,53.0,36.0,30.14,SSW,195,2.0,4.0,52,-99.99,,,-99.99,0.000000,,2013-10-31 13:22:00,
2013-10-31 06:32:00,53.0,36.0,30.14,SSW,195,2.0,4.0,52,-99.99,,,-99.99,0.000000,,2013-10-31 13:32:00,
2013-10-31 06:40:00,52.0,36.0,30.14,SSE,152,5.0,6.0,54,-99.99,,,-99.99,0.000000,,2013-10-31 13:40:00,
2013-10-31 08:40:00,57.0,35.0,30.16,East,92,1.0,2.0,43,-99.99,,,-99.99,222.000000,,2013-10-31 15:40:00,
2013-10-31 09:22:00,57.0,35.0,30.16,East,92,1.0,2.0,43,-99.99,,,-99.99,222.000000,,2013-10-31 16:22:00,
2013-10-31 09:33:00,57.0,35.0,30.16,East,92,1.0,2.0,43,-99.99,,,-99.99,222.000000,,2013-10-31 16:33:00,
2013-10-31 09:40:00,56.0,36.0,30.18,WSW,242,2.0,4.0,46,-99.99,,,-99.99,424.000000,,2013-10-31 16:40:00,
2013-10-31 10:22:00,56.0,36.0,30.18,WSW,242,2.0,4.0,46,-99.99,,,-99.99,424.000000,,2013-10-31 17:22:00,
2013-10-31 10:33:00,56.0,36.0,30.18,WSW,242,2.0,4.0,46,-99.99,,,-99.99,424.000000,,2013-10-31 17:33:00,
2013-10-31 10:40:00,58.0,36.0,30.17,WNW,282,2.0,3.0,44,-99.99,,,-99.99,581.000000,,2013-10-31 17:40:00,
2013-10-31 11:21:00,58.0,36.0,30.17,WNW,282,2.0,3.0,44,-99.99,,,-99.99,581.000000,,2013-10-31 18:21:00,
2013-10-31 11:32:00,58.0,36.0,30.17,WNW,282,2.0,3.0,44,-99.99,,,-99.99,581.000000,,2013-10-31 18:32:00,
2013-10-31 11:40:00,59.0,37.0,30.17,West,273,4.0,6.0,44,-99.99,,,-99.99,682.000000,,2013-10-31 18:40:00,
2013-10-31 12:21:00,59.0,37.0,30.17,West,273,4.0,6.0,44,-99.99,,,-99.99,682.000000,,2013-10-31 19:21:00,
2013-10-31 12:32:00,59.0,37.0,30.17,West,273,4.0,6.0,44,-99.99,,,-99.99,682.000000,,2013-10-31 19:32:00,
2013-10-31 12:40:00,59.0,37.0,30.16,West,272,4.0,6.0,43,-99.99,,,-99.99,721.000000,,2013-10-31 19:40:00,
2013-10-31 13:22:00,59.0,37.0,30.16,West,272,4.0,6.0,43,-99.99,,,-99.99,721.000000,,2013-10-31 20:22:00,
2013-10-31 13:32:00,59.0,37.0,30.16,West,272,4.0,6.0,43,-99.99,,,-99.99,721.000000,,2013-10-31 20:32:00,
2013-10-31 13:40:00,60.0,39.0,30.14,West,281,4.0,6.0,45,-99.99,,,-99.99,698.000000,,2013-10-31 20:40:00,
2013-10-31 14:21:00,60.0,39.0,30.14,West,281,4.0,6.0,45,-99.99,,,-99.99,698.000000,,2013-10-31 21:21:00,
2013-10-31 14:33:00,60.0,39.0,30.14,West,281,4.0,6.0,45,-99.99,,,-99.99,698.000000,,2013-10-31 21:33:00,
2013-10-31 14:40:00,62.0,39.0,30.13,West,279,4.0,6.0,43,-99.99,,,-99.99,603.000000,,2013-10-31 21:40:00,
2013-10-31 15:24:00,62.0,39.0,30.13,West,279,4.0,6.0,43,-99.99,,,-99.99,603.000000,,2013-10-31 22:24:00,
2013-10-31 15:33:00,62.0,39.0,30.13,West,279,4.0,6.0,43,-99.99,,,-99.99,603.000000,,2013-10-31 22:33:00,
2013-10-31 15:40:00,62.0,40.0,30.12,West,279,4.0,7.0,45,-99.99,,,-99.99,457.000000,,2013-10-31 22:40:00,
2013-10-31 16:22:00,62.0,40.0,30.12,West,279,4.0,7.0,45,-99.99,,,-99.99,457.000000,,2013-10-31 23:22:00,
2013-10-31 16:34:00,62.0,40.0,30.12,West,279,4.0,7.0,45,-99.99,,,-99.99,457.000000,,2013-10-31 23:34:00,
2013-10-31 17:40:00,63.0,40.0,30.11,WNW,301,0.0,3.0,42,-99.99,,,-99.99,91.000000,,2013-11-01 00:40:00,
2013-10-31 18:22:00,63.0,40.0,30.11,WNW,301,0.0,3.0,42,-99.99,,,-99.99,91.000000,,2013-11-01 01:22:00,
2013-10-31 18:32:00,63.0,40.0,30.11,WNW,301,0.0,3.0,42,-99.99,,,-99.99,91.000000,,2013-11-01 01:32:00,
2013-10-31 18:40:00,60.0,35.0,30.11,WNW,288,3.0,4.0,38,-99.99,,,-99.99,0.000000,,2013-11-01 01:40:00,
2013-10-31 19:22:00,60.0,35.0,30.11,WNW,288,3.0,4.0,38,-99.99,,,-99.99,0.000000,,2013-11-01 02:22:00,
2013-10-31 19:32:00,60.0,35.0,30.11,WNW,288,3.0,4.0,38,-99.99,,,-99.99,0.000000,,2013-11-01 02:32:00,
2013-10-31 19:40:00,59.0,32.0,30.13,WNW,291,3.0,3.0,36,-99.99,,,-99.99,0.000000,,2013-11-01 02:40:00,
2013-10-31 20:22:00,59.0,32.0,30.13,WNW,291,3.0,3.0,36,-99.99,,,-99.99,0.000000,,2013-11-01 03:22:00,
2013-10-31 20:33:00,59.0,32.0,30.13,WNW,291,3.0,3.0,36,-99.99,,,-99.99,0.000000,,2013-11-01 03:33:00,
2013-10-31 21:24:00,61.0,31.0,30.13,West,269,2.0,3.0,32,-99.99,,,-99.99,0.000000,,2013-11-01 04:24:00,
2013-10-31 21:34:00,61.0,31.0,30.13,West,269,2.0,3.0,32,-99.99,,,-99.99,0.000000,,2013-11-01 04:34:00,